SBI601 URSS-UGTB

Flight info

Callsign SBI601
Flight time N/A
Altitude 35000
Route ULKOT DCT GUBOR DCT DINAP DCT NIMSA DCT GUSLI/N0456F350 DCT GIMUR
Aircraft A320/M-SDE3FGHIRWY/LB1

Departure

Time 2026-05-07 22:03
Airport Sochi International Airport (URSS)

Arrival

Time N/A
Airport Tbilisi International Airport (UGTB)
Time Latitude Longitude Altitude Speed Heading
2026-05-07 21:56 43.44808 39.94524 64 ft 2 kts 338°
2026-05-07 21:56 43.44792 39.94532 72 ft 2 kts 340°
2026-05-07 21:56 43.44777 39.94540 70 ft 2 kts 343°
2026-05-07 21:56 43.44761 39.94545 66 ft 2 kts 353°
2026-05-07 21:57 43.44744 39.94546 66 ft 2 kts 36°
2026-05-07 21:57 43.44737 39.94536 66 ft 0 kts 65°
2026-05-07 21:58 43.44751 39.94574 70 ft 19 kts 64°
2026-05-07 21:58 43.44817 39.94765 73 ft 23 kts 64°
2026-05-07 21:58 43.44880 39.94952 76 ft 0 kts 65°
2026-05-07 22:00 43.44894 39.94994 83 ft 21 kts 65°
2026-05-07 22:01 43.44969 39.95207 84 ft 25 kts 63°
2026-05-07 22:01 43.44988 39.95308 90 ft 0 kts 101°
2026-05-07 22:01 43.44988 39.95311 90 ft 1 kts 104°
2026-05-07 22:01 43.44918 39.95366 89 ft 13 kts 193°
2026-05-07 22:02 43.44883 39.95318 86 ft 0 kts 245°
2026-05-07 22:02 43.44871 39.95282 85 ft 21 kts 245°
2026-05-07 22:02 43.44687 39.94735 69 ft 99 kts 245°
2026-05-07 22:02 43.44306 39.93619 71 ft 155 kts 246°
2026-05-07 22:03 43.43853 39.92278 655 ft 156 kts 246°
2026-05-07 22:03 43.43454 39.90897 1300 ft 156 kts 254°
2026-05-07 22:03 43.43214 39.89354 1730 ft 175 kts 263°
2026-05-07 22:03 43.43174 39.87587 2072 ft 199 kts 274°
2026-05-07 22:04 43.43426 39.85590 2426 ft 224 kts 286°
2026-05-07 22:04 43.44062 39.83512 2881 ft 249 kts 300°
2026-05-07 22:04 43.45096 39.81549 3549 ft 262 kts 308°
2026-05-07 22:04 43.46232 39.79557 4468 ft 267 kts 308°
2026-05-07 22:05 43.47546 39.77736 5380 ft 271 kts 327°
2026-05-07 22:05 43.49293 39.76782 6275 ft 274 kts 353°
2026-05-07 22:05 43.51192 39.76971 7136 ft 276 kts 18°
2026-05-07 22:05 43.52996 39.77878 8032 ft 278 kts 24°
2026-05-07 22:06 43.54605 39.79352 8885 ft 281 kts 46°
2026-05-07 22:06 43.55689 39.81596 9745 ft 284 kts 63°
2026-05-07 22:06 43.56593 39.84041 10511 ft 292 kts 63°
2026-05-07 22:06 43.57545 39.86641 10785 ft 315 kts 63°
2026-05-07 22:07 43.58568 39.89444 11045 ft 337 kts 63°
2026-05-07 22:07 43.59636 39.92379 11650 ft 345 kts 63°
2026-05-07 22:07 43.60725 39.95359 12400 ft 349 kts 63°
2026-05-07 22:07 43.61829 39.98363 13181 ft 352 kts 63°
2026-05-07 22:08 43.62937 40.01381 13953 ft 354 kts 63°
2026-05-07 22:08 43.64041 40.04388 14618 ft 357 kts 63°
2026-05-07 22:08 43.65165 40.07461 15293 ft 360 kts 63°
2026-05-07 22:08 43.66295 40.10559 15953 ft 362 kts 63°
2026-05-07 22:09 43.67432 40.13677 16602 ft 365 kts 63°
2026-05-07 22:09 43.68579 40.16824 17277 ft 368 kts 63°
2026-05-07 22:09 43.69733 40.19982 17997 ft 368 kts 63°
2026-05-07 22:09 43.70892 40.23162 18638 ft 371 kts 63°
2026-05-07 22:10 43.72057 40.26360 19218 ft 374 kts 63°
2026-05-07 22:10 43.73234 40.29595 19754 ft 377 kts 63°
2026-05-07 22:10 43.74414 40.32849 20290 ft 381 kts 63°
2026-05-07 22:10 43.75603 40.36136 20840 ft 384 kts 63°
2026-05-07 22:11 43.76802 40.39451 21348 ft 387 kts 63°
2026-05-07 22:11 43.77601 40.41663 21701 ft 389 kts 63°
2026-05-07 22:11 43.78819 40.45033 22227 ft 392 kts 63°
2026-05-07 22:11 43.80445 40.49538 22958 ft 395 kts 63°
2026-05-07 22:12 43.81671 40.52945 23526 ft 396 kts 63°
2026-05-07 22:12 43.82501 40.55257 23853 ft 397 kts 63°
2026-05-07 22:12 43.83719 40.58650 24262 ft 399 kts 63°
2026-05-07 22:12 43.84954 40.62100 24657 ft 401 kts 63°
2026-05-07 22:13 43.86039 40.65678 25058 ft 403 kts 72°
2026-05-07 22:13 43.86608 40.69496 25435 ft 407 kts 83°
2026-05-07 22:13 43.86623 40.73438 25802 ft 412 kts 94°
2026-05-07 22:13 43.86069 40.77364 26184 ft 417 kts 104°
2026-05-07 22:14 43.84996 40.81134 26566 ft 422 kts 110°
2026-05-07 22:14 43.83836 40.84824 26905 ft 424 kts 110°
2026-05-07 22:14 43.82655 40.88590 27241 ft 426 kts 110°
2026-05-07 22:14 43.81471 40.92375 27596 ft 428 kts 110°
2026-05-07 22:15 43.80285 40.96164 27937 ft 430 kts 110°
2026-05-07 22:15 43.79089 40.99971 28273 ft 432 kts 110°